locationName,lineName,date,time,countIn,countOut
���X�X����,2_1_1,2022/5/1,0:00,5,1
���X�X����,2_1_1,2022/5/1,1:00,3,0
���X�X����,2_1_1,2022/5/1,2:00,1,1
���X�X����,2_1_1,2022/5/1,3:00,7,1
���X�X����,2_1_1,2022/5/1,4:00,0,0
���X�X����,2_1_1,2022/5/1,5:00,9,7
���X�X����,2_1_1,2022/5/1,6:00,25,27
���X�X����,2_1_1,2022/5/1,7:00,55,71
���X�X����,2_1_1,2022/5/1,8:00,114,157
���X�X����,2_1_1,2022/5/1,9:00,168,271
���X�X����,2_1_1,2022/5/1,10:00,247,594
���X�X����,2_1_1,2022/5/1,11:00,383,628
���X�X����,2_1_1,2022/5/1,12:00,572,699
���X�X����,2_1_1,2022/5/1,13:00,662,671
���X�X����,2_1_1,2022/5/1,14:00,711,680
���X�X����,2_1_1,2022/5/1,15:00,746,506
���X�X����,2_1_1,2022/5/1,16:00,590,434
���X�X����,2_1_1,2022/5/1,17:00,457,277
���X�X����,2_1_1,2022/5/1,18:00,293,191
���X�X����,2_1_1,2022/5/1,19:00,149,120
���X�X����,2_1_1,2022/5/1,20:00,105,79
���X�X����,2_1_1,2022/5/1,21:00,62,38
���X�X����,2_1_1,2022/5/1,22:00,20,14
���X�X����,2_1_1,2022/5/1,23:00,6,2
���X�X����,2_1_1,2022/5/2,0:00,2,0
���X�X����,2_1_1,2022/5/2,1:00,2,3
���X�X����,2_1_1,2022/5/2,2:00,5,2
���X�X����,2_1_1,2022/5/2,3:00,1,1
���X�X����,2_1_1,2022/5/2,4:00,0,1
���X�X����,2_1_1,2022/5/2,5:00,17,14
���X�X����,2_1_1,2022/5/2,6:00,47,50
���X�X����,2_1_1,2022/5/2,7:00,73,400
���X�X����,2_1_1,2022/5/2,8:00,96,370
���X�X����,2_1_1,2022/5/2,9:00,198,258
���X�X����,2_1_1,2022/5/2,10:00,233,629
���X�X����,2_1_1,2022/5/2,11:00,539,607
���X�X����,2_1_1,2022/5/2,12:00,581,657
���X�X����,2_1_1,2022/5/2,13:00,620,632
���X�X����,2_1_1,2022/5/2,14:00,613,536
���X�X����,2_1_1,2022/5/2,15:00,553,392
���X�X����,2_1_1,2022/5/2,16:00,588,404
���X�X����,2_1_1,2022/5/2,17:00,592,287
���X�X����,2_1_1,2022/5/2,18:00,447,230
���X�X����,2_1_1,2022/5/2,19:00,200,176
���X�X����,2_1_1,2022/5/2,20:00,124,82
���X�X����,2_1_1,2022/5/2,21:00,71,51
���X�X����,2_1_1,2022/5/2,22:00,20,12
���X�X����,2_1_1,2022/5/2,23:00,10,2
���X�X����,2_1_1,2022/5/3,0:00,4,3
���X�X����,2_1_1,2022/5/3,1:00,3,2
���X�X����,2_1_1,2022/5/3,2:00,3,3
���X�X����,2_1_1,2022/5/3,3:00,2,1
���X�X����,2_1_1,2022/5/3,4:00,1,1
���X�X����,2_1_1,2022/5/3,5:00,15,14
���X�X����,2_1_1,2022/5/3,6:00,42,44
���X�X����,2_1_1,2022/5/3,7:00,55,116
���X�X����,2_1_1,2022/5/3,8:00,119,169
���X�X����,2_1_1,2022/5/3,9:00,153,343
���X�X����,2_1_1,2022/5/3,10:00,257,645
���X�X����,2_1_1,2022/5/3,11:00,434,660
���X�X����,2_1_1,2022/5/3,12:00,557,785
���X�X����,2_1_1,2022/5/3,13:00,665,640
���X�X����,2_1_1,2022/5/3,14:00,757,741
���X�X����,2_1_1,2022/5/3,15:00,767,587
���X�X����,2_1_1,2022/5/3,16:00,899,596
���X�X����,2_1_1,2022/5/3,17:00,707,407
���X�X����,2_1_1,2022/5/3,18:00,399,270
���X�X����,2_1_1,2022/5/3,19:00,239,198
���X�X����,2_1_1,2022/5/3,20:00,130,101
���X�X����,2_1_1,2022/5/3,21:00,96,59
���X�X����,2_1_1,2022/5/3,22:00,27,16
���X�X����,2_1_1,2022/5/3,23:00,10,2
���X�X����,2_1_1,2022/5/4,0:00,6,4
���X�X����,2_1_1,2022/5/4,1:00,1,1
���X�X����,2_1_1,2022/5/4,2:00,4,2
���X�X����,2_1_1,2022/5/4,3:00,4,0
���X�X����,2_1_1,2022/5/4,4:00,0,1
���X�X����,2_1_1,2022/5/4,5:00,12,14
���X�X����,2_1_1,2022/5/4,6:00,43,32
���X�X����,2_1_1,2022/5/4,7:00,78,77
���X�X����,2_1_1,2022/5/4,8:00,121,186
���X�X����,2_1_1,2022/5/4,9:00,190,409
���X�X����,2_1_1,2022/5/4,10:00,338,746
���X�X����,2_1_1,2022/5/4,11:00,489,852
���X�X����,2_1_1,2022/5/4,12:00,662,922
���X�X����,2_1_1,2022/5/4,13:00,861,748
���X�X����,2_1_1,2022/5/4,14:00,882,834
���X�X����,2_1_1,2022/5/4,15:00,994,675
���X�X����,2_1_1,2022/5/4,16:00,887,536
���X�X����,2_1_1,2022/5/4,17:00,727,396
���X�X����,2_1_1,2022/5/4,18:00,428,263
���X�X����,2_1_1,2022/5/4,19:00,236,123
���X�X����,2_1_1,2022/5/4,20:00,125,112
���X�X����,2_1_1,2022/5/4,21:00,85,43
���X�X����,2_1_1,2022/5/4,22:00,44,11
���X�X����,2_1_1,2022/5/4,23:00,7,1
���X�X����,2_1_1,2022/5/5,0:00,8,1
���X�X����,2_1_1,2022/5/5,1:00,0,1
���X�X����,2_1_1,2022/5/5,2:00,5,2
���X�X����,2_1_1,2022/5/5,3:00,2,0
���X�X����,2_1_1,2022/5/5,4:00,2,1
���X�X����,2_1_1,2022/5/5,5:00,21,12
���X�X����,2_1_1,2022/5/5,6:00,46,40
���X�X����,2_1_1,2022/5/5,7:00,51,71
���X�X����,2_1_1,2022/5/5,8:00,108,137
���X�X����,2_1_1,2022/5/5,9:00,184,372
���X�X����,2_1_1,2022/5/5,10:00,298,671
���X�X����,2_1_1,2022/5/5,11:00,464,697
���X�X����,2_1_1,2022/5/5,12:00,626,726
���X�X����,2_1_1,2022/5/5,13:00,715,706
���X�X����,2_1_1,2022/5/5,14:00,806,672
���X�X����,2_1_1,2022/5/5,15:00,768,454
���X�X����,2_1_1,2022/5/5,16:00,583,366
���X�X����,2_1_1,2022/5/5,17:00,393,296
���X�X����,2_1_1,2022/5/5,18:00,214,146
���X�X����,2_1_1,2022/5/5,19:00,147,113
���X�X����,2_1_1,2022/5/5,20:00,88,58
���X�X����,2_1_1,2022/5/5,21:00,67,29
���X�X����,2_1_1,2022/5/5,22:00,18,12
���X�X����,2_1_1,2022/5/5,23:00,6,2
���X�X����,2_1_1,2022/5/6,0:00,2,0
���X�X����,2_1_1,2022/5/6,1:00,2,2
���X�X����,2_1_1,2022/5/6,2:00,0,2
���X�X����,2_1_1,2022/5/6,3:00,2,1
���X�X����,2_1_1,2022/5/6,4:00,2,1
���X�X����,2_1_1,2022/5/6,5:00,16,13
���X�X����,2_1_1,2022/5/6,6:00,39,38
���X�X����,2_1_1,2022/5/6,7:00,99,426
���X�X����,2_1_1,2022/5/6,8:00,119,352
���X�X����,2_1_1,2022/5/6,9:00,140,252
���X�X����,2_1_1,2022/5/6,10:00,259,370
���X�X����,2_1_1,2022/5/6,11:00,366,418
���X�X����,2_1_1,2022/5/6,12:00,506,632
���X�X����,2_1_1,2022/5/6,13:00,454,446
���X�X����,2_1_1,2022/5/6,14:00,399,327
���X�X����,2_1_1,2022/5/6,15:00,493,239
���X�X����,2_1_1,2022/5/6,16:00,502,283
���X�X����,2_1_1,2022/5/6,17:00,373,201
���X�X����,2_1_1,2022/5/6,18:00,260,201
���X�X����,2_1_1,2022/5/6,19:00,118,133
���X�X����,2_1_1,2022/5/6,20:00,98,88
���X�X����,2_1_1,2022/5/6,21:00,114,53
���X�X����,2_1_1,2022/5/6,22:00,28,10
���X�X����,2_1_1,2022/5/6,23:00,6,3
���X�X����,2_1_1,2022/5/7,0:00,8,0
���X�X����,2_1_1,2022/5/7,1:00,4,0
���X�X����,2_1_1,2022/5/7,2:00,5,2
���X�X����,2_1_1,2022/5/7,3:00,2,0
���X�X����,2_1_1,2022/5/7,4:00,4,4
���X�X����,2_1_1,2022/5/7,5:00,14,9
���X�X����,2_1_1,2022/5/7,6:00,24,33
���X�X����,2_1_1,2022/5/7,7:00,65,131
���X�X����,2_1_1,2022/5/7,8:00,100,252
���X�X����,2_1_1,2022/5/7,9:00,141,212
���X�X����,2_1_1,2022/5/7,10:00,192,333
���X�X����,2_1_1,2022/5/7,11:00,239,369
���X�X����,2_1_1,2022/5/7,12:00,351,503
���X�X����,2_1_1,2022/5/7,13:00,400,400
���X�X����,2_1_1,2022/5/7,14:00,585,334
���X�X����,2_1_1,2022/5/7,15:00,440,281
���X�X����,2_1_1,2022/5/7,16:00,351,300
���X�X����,2_1_1,2022/5/7,17:00,306,253
���X�X����,2_1_1,2022/5/7,18:00,191,164
���X�X����,2_1_1,2022/5/7,19:00,121,103
���X�X����,2_1_1,2022/5/7,20:00,114,66
���X�X����,2_1_1,2022/5/7,21:00,69,51
���X�X����,2_1_1,2022/5/7,22:00,14,19
���X�X����,2_1_1,2022/5/7,23:00,12,1
���X�X����,2_1_1,2022/5/8,0:00,4,2
���X�X����,2_1_1,2022/5/8,1:00,4,0
���X�X����,2_1_1,2022/5/8,2:00,2,0
���X�X����,2_1_1,2022/5/8,3:00,4,0
���X�X����,2_1_1,2022/5/8,4:00,0,0
���X�X����,2_1_1,2022/5/8,5:00,20,12
���X�X����,2_1_1,2022/5/8,6:00,16,29
���X�X����,2_1_1,2022/5/8,7:00,35,62
���X�X����,2_1_1,2022/5/8,8:00,63,73
���X�X����,2_1_1,2022/5/8,9:00,110,168
���X�X����,2_1_1,2022/5/8,10:00,171,394
���X�X����,2_1_1,2022/5/8,11:00,236,356
���X�X����,2_1_1,2022/5/8,12:00,342,437
���X�X����,2_1_1,2022/5/8,13:00,404,439
���X�X����,2_1_1,2022/5/8,14:00,425,365
���X�X����,2_1_1,2022/5/8,15:00,343,268
���X�X����,2_1_1,2022/5/8,16:00,311,242
���X�X����,2_1_1,2022/5/8,17:00,230,154
���X�X����,2_1_1,2022/5/8,18:00,118,93
���X�X����,2_1_1,2022/5/8,19:00,84,90
���X�X����,2_1_1,2022/5/8,20:00,51,55
���X�X����,2_1_1,2022/5/8,21:00,37,25
���X�X����,2_1_1,2022/5/8,22:00,17,6
���X�X����,2_1_1,2022/5/8,23:00,7,2
���X�X����,2_1_1,2022/5/9,0:00,0,0
���X�X����,2_1_1,2022/5/9,1:00,0,1
���X�X����,2_1_1,2022/5/9,2:00,0,1
���X�X����,2_1_1,2022/5/9,3:00,1,2
���X�X����,2_1_1,2022/5/9,4:00,1,1
���X�X����,2_1_1,2022/5/9,5:00,7,5
���X�X����,2_1_1,2022/5/9,6:00,39,42
���X�X����,2_1_1,2022/5/9,7:00,82,324
���X�X����,2_1_1,2022/5/9,8:00,103,185
���X�X����,2_1_1,2022/5/9,9:00,125,168
���X�X����,2_1_1,2022/5/9,10:00,127,190
���X�X����,2_1_1,2022/5/9,11:00,151,149
���X�X����,2_1_1,2022/5/9,12:00,165,187
���X�X����,2_1_1,2022/5/9,13:00,173,166
���X�X����,2_1_1,2022/5/9,14:00,157,151
���X�X����,2_1_1,2022/5/9,15:00,246,120
���X�X����,2_1_1,2022/5/9,16:00,254,139
���X�X����,2_1_1,2022/5/9,17:00,253,123
���X�X����,2_1_1,2022/5/9,18:00,143,115
���X�X����,2_1_1,2022/5/9,19:00,92,76
���X�X����,2_1_1,2022/5/9,20:00,67,45
���X�X����,2_1_1,2022/5/9,21:00,57,31
���X�X����,2_1_1,2022/5/9,22:00,16,9
���X�X����,2_1_1,2022/5/9,23:00,1,1
���X�X����,2_1_1,2022/5/10,0:00,2,1
���X�X����,2_1_1,2022/5/10,1:00,2,0
���X�X����,2_1_1,2022/5/10,2:00,1,2
���X�X����,2_1_1,2022/5/10,3:00,2,0
���X�X����,2_1_1,2022/5/10,4:00,2,0
���X�X����,2_1_1,2022/5/10,5:00,13,17
���X�X����,2_1_1,2022/5/10,6:00,37,48
���X�X����,2_1_1,2022/5/10,7:00,98,389
���X�X����,2_1_1,2022/5/10,8:00,90,354
���X�X����,2_1_1,2022/5/10,9:00,143,136
���X�X����,2_1_1,2022/5/10,10:00,158,191
���X�X����,2_1_1,2022/5/10,11:00,139,183
���X�X����,2_1_1,2022/5/10,12:00,209,211
���X�X����,2_1_1,2022/5/10,13:00,175,162
���X�X����,2_1_1,2022/5/10,14:00,187,164
���X�X����,2_1_1,2022/5/10,15:00,159,127
���X�X����,2_1_1,2022/5/10,16:00,379,162
���X�X����,2_1_1,2022/5/10,17:00,366,151
���X�X����,2_1_1,2022/5/10,18:00,212,110
���X�X����,2_1_1,2022/5/10,19:00,110,90
���X�X����,2_1_1,2022/5/10,20:00,85,60
���X�X����,2_1_1,2022/5/10,21:00,74,35
���X�X����,2_1_1,2022/5/10,22:00,19,13
���X�X����,2_1_1,2022/5/10,23:00,3,0
���X�X����,2_1_1,2022/5/11,0:00,3,0
���X�X����,2_1_1,2022/5/11,1:00,4,1
���X�X����,2_1_1,2022/5/11,2:00,0,3
���X�X����,2_1_1,2022/5/11,3:00,2,1
���X�X����,2_1_1,2022/5/11,4:00,2,0
���X�X����,2_1_1,2022/5/11,5:00,14,14
���X�X����,2_1_1,2022/5/11,6:00,39,30
���X�X����,2_1_1,2022/5/11,7:00,71,188
���X�X����,2_1_1,2022/5/11,8:00,58,224
���X�X����,2_1_1,2022/5/11,9:00,94,109
���X�X����,2_1_1,2022/5/11,10:00,136,129
���X�X����,2_1_1,2022/5/11,11:00,142,154
���X�X����,2_1_1,2022/5/11,12:00,195,166
���X�X����,2_1_1,2022/5/11,13:00,177,138
���X�X����,2_1_1,2022/5/11,14:00,142,137
���X�X����,2_1_1,2022/5/11,15:00,166,120
���X�X����,2_1_1,2022/5/11,16:00,195,116
���X�X����,2_1_1,2022/5/11,17:00,234,145
���X�X����,2_1_1,2022/5/11,18:00,135,109
���X�X����,2_1_1,2022/5/11,19:00,95,82
���X�X����,2_1_1,2022/5/11,20:00,89,45
���X�X����,2_1_1,2022/5/11,21:00,66,22
���X�X����,2_1_1,2022/5/11,22:00,13,10
���X�X����,2_1_1,2022/5/11,23:00,2,1
���X�X����,2_1_1,2022/5/12,0:00,3,0
���X�X����,2_1_1,2022/5/12,1:00,0,0
���X�X����,2_1_1,2022/5/12,2:00,3,3
���X�X����,2_1_1,2022/5/12,3:00,5,1
���X�X����,2_1_1,2022/5/12,4:00,2,3
���X�X����,2_1_1,2022/5/12,5:00,10,8
���X�X����,2_1_1,2022/5/12,6:00,38,30
���X�X����,2_1_1,2022/5/12,7:00,78,315
���X�X����,2_1_1,2022/5/12,8:00,77,242
���X�X����,2_1_1,2022/5/12,9:00,91,129
���X�X����,2_1_1,2022/5/12,10:00,174,151
���X�X����,2_1_1,2022/5/12,11:00,199,124
���X�X����,2_1_1,2022/5/12,12:00,197,136
���X�X����,2_1_1,2022/5/12,13:00,197,123
���X�X����,2_1_1,2022/5/12,14:00,105,98
���X�X����,2_1_1,2022/5/12,15:00,134,110
���X�X����,2_1_1,2022/5/12,16:00,124,115
���X�X����,2_1_1,2022/5/12,17:00,192,123
���X�X����,2_1_1,2022/5/12,18:00,99,77
���X�X����,2_1_1,2022/5/12,19:00,70,41
���X�X����,2_1_1,2022/5/12,20:00,59,39
���X�X����,2_1_1,2022/5/12,21:00,67,25
���X�X����,2_1_1,2022/5/12,22:00,14,7
���X�X����,2_1_1,2022/5/12,23:00,4,1
���X�X����,2_1_1,2022/5/13,0:00,3,1
���X�X����,2_1_1,2022/5/13,1:00,2,1
���X�X����,2_1_1,2022/5/13,2:00,0,1
���X�X����,2_1_1,2022/5/13,3:00,0,0
���X�X����,2_1_1,2022/5/13,4:00,0,0
���X�X����,2_1_1,2022/5/13,5:00,10,5
���X�X����,2_1_1,2022/5/13,6:00,41,32
���X�X����,2_1_1,2022/5/13,7:00,75,212
���X�X����,2_1_1,2022/5/13,8:00,76,224
���X�X����,2_1_1,2022/5/13,9:00,121,138
���X�X����,2_1_1,2022/5/13,10:00,97,168
���X�X����,2_1_1,2022/5/13,11:00,143,138
���X�X����,2_1_1,2022/5/13,12:00,205,146
���X�X����,2_1_1,2022/5/13,13:00,252,96
���X�X����,2_1_1,2022/5/13,14:00,140,130
���X�X����,2_1_1,2022/5/13,15:00,170,85
���X�X����,2_1_1,2022/5/13,16:00,184,132
���X�X����,2_1_1,2022/5/13,17:00,254,130
���X�X����,2_1_1,2022/5/13,18:00,130,110
���X�X����,2_1_1,2022/5/13,19:00,89,69
���X�X����,2_1_1,2022/5/13,20:00,47,39
���X�X����,2_1_1,2022/5/13,21:00,59,38
���X�X����,2_1_1,2022/5/13,22:00,23,9
���X�X����,2_1_1,2022/5/13,23:00,4,1
���X�X����,2_1_1,2022/5/14,0:00,5,0
���X�X����,2_1_1,2022/5/14,1:00,5,1
���X�X����,2_1_1,2022/5/14,2:00,1,2
���X�X����,2_1_1,2022/5/14,3:00,3,1
���X�X����,2_1_1,2022/5/14,4:00,2,3
���X�X����,2_1_1,2022/5/14,5:00,13,7
���X�X����,2_1_1,2022/5/14,6:00,26,27
���X�X����,2_1_1,2022/5/14,7:00,64,68
���X�X����,2_1_1,2022/5/14,8:00,80,123
���X�X����,2_1_1,2022/5/14,9:00,132,190
���X�X����,2_1_1,2022/5/14,10:00,209,305
���X�X����,2_1_1,2022/5/14,11:00,199,388
���X�X����,2_1_1,2022/5/14,12:00,322,394
���X�X����,2_1_1,2022/5/14,13:00,335,349
���X�X����,2_1_1,2022/5/14,14:00,381,342
���X�X����,2_1_1,2022/5/14,15:00,391,230
���X�X����,2_1_1,2022/5/14,16:00,315,270
���X�X����,2_1_1,2022/5/14,17:00,297,233
���X�X����,2_1_1,2022/5/14,18:00,188,159
���X�X����,2_1_1,2022/5/14,19:00,141,113
���X�X����,2_1_1,2022/5/14,20:00,77,52
���X�X����,2_1_1,2022/5/14,21:00,61,30
���X�X����,2_1_1,2022/5/14,22:00,29,20
���X�X����,2_1_1,2022/5/14,23:00,10,5
���X�X����,2_1_1,2022/5/15,0:00,7,0
���X�X����,2_1_1,2022/5/15,1:00,4,1
���X�X����,2_1_1,2022/5/15,2:00,1,1
���X�X����,2_1_1,2022/5/15,3:00,1,0
���X�X����,2_1_1,2022/5/15,4:00,2,0
���X�X����,2_1_1,2022/5/15,5:00,14,20
���X�X����,2_1_1,2022/5/15,6:00,17,23
���X�X����,2_1_1,2022/5/15,7:00,42,125
���X�X����,2_1_1,2022/5/15,8:00,68,197
���X�X����,2_1_1,2022/5/15,9:00,111,153
���X�X����,2_1_1,2022/5/15,10:00,148,261
���X�X����,2_1_1,2022/5/15,11:00,234,305
���X�X����,2_1_1,2022/5/15,12:00,299,348
���X�X����,2_1_1,2022/5/15,13:00,350,364
���X�X����,2_1_1,2022/5/15,14:00,487,317
���X�X����,2_1_1,2022/5/15,15:00,398,242
���X�X����,2_1_1,2022/5/15,16:00,336,230
���X�X����,2_1_1,2022/5/15,17:00,319,135
���X�X����,2_1_1,2022/5/15,18:00,136,90
���X�X����,2_1_1,2022/5/15,19:00,80,51
���X�X����,2_1_1,2022/5/15,20:00,47,43
���X�X����,2_1_1,2022/5/15,21:00,36,27
���X�X����,2_1_1,2022/5/15,22:00,13,4
���X�X����,2_1_1,2022/5/15,23:00,4,0
���X�X����,2_1_1,2022/5/16,0:00,1,1
���X�X����,2_1_1,2022/5/16,1:00,3,0
���X�X����,2_1_1,2022/5/16,2:00,0,0
���X�X����,2_1_1,2022/5/16,3:00,0,1
���X�X����,2_1_1,2022/5/16,4:00,1,1
���X�X����,2_1_1,2022/5/16,5:00,18,15
���X�X����,2_1_1,2022/5/16,6:00,43,46
���X�X����,2_1_1,2022/5/16,7:00,90,407
���X�X����,2_1_1,2022/5/16,8:00,85,357
���X�X����,2_1_1,2022/5/16,9:00,116,155
���X�X����,2_1_1,2022/5/16,10:00,175,177
���X�X����,2_1_1,2022/5/16,11:00,157,197
���X�X����,2_1_1,2022/5/16,12:00,221,218
���X�X����,2_1_1,2022/5/16,13:00,200,215
���X�X����,2_1_1,2022/5/16,14:00,171,155
���X�X����,2_1_1,2022/5/16,15:00,273,192
���X�X����,2_1_1,2022/5/16,16:00,235,165
���X�X����,2_1_1,2022/5/16,17:00,298,140
���X�X����,2_1_1,2022/5/16,18:00,397,134
���X�X����,2_1_1,2022/5/16,19:00,124,90
���X�X����,2_1_1,2022/5/16,20:00,83,53
���X�X����,2_1_1,2022/5/16,21:00,62,36
���X�X����,2_1_1,2022/5/16,22:00,12,8
���X�X����,2_1_1,2022/5/16,23:00,6,3
���X�X����,2_1_1,2022/5/17,0:00,1,0
���X�X����,2_1_1,2022/5/17,1:00,0,1
���X�X����,2_1_1,2022/5/17,2:00,1,1
���X�X����,2_1_1,2022/5/17,3:00,1,0
���X�X����,2_1_1,2022/5/17,4:00,0,1
���X�X����,2_1_1,2022/5/17,5:00,17,13
���X�X����,2_1_1,2022/5/17,6:00,42,54
���X�X����,2_1_1,2022/5/17,7:00,96,405
���X�X����,2_1_1,2022/5/17,8:00,99,350
���X�X����,2_1_1,2022/5/17,9:00,118,152
���X�X����,2_1_1,2022/5/17,10:00,161,206
���X�X����,2_1_1,2022/5/17,11:00,167,243
���X�X����,2_1_1,2022/5/17,12:00,217,254
���X�X����,2_1_1,2022/5/17,13:00,229,175
���X�X����,2_1_1,2022/5/17,14:00,167,155
���X�X����,2_1_1,2022/5/17,15:00,159,109
���X�X����,2_1_1,2022/5/17,16:00,269,134
���X�X����,2_1_1,2022/5/17,17:00,317,117
���X�X����,2_1_1,2022/5/17,18:00,400,116
���X�X����,2_1_1,2022/5/17,19:00,93,74
���X�X����,2_1_1,2022/5/17,20:00,72,44
���X�X����,2_1_1,2022/5/17,21:00,68,32
���X�X����,2_1_1,2022/5/17,22:00,20,11
���X�X����,2_1_1,2022/5/17,23:00,3,0
���X�X����,2_1_1,2022/5/18,0:00,0,2
���X�X����,2_1_1,2022/5/18,1:00,3,0
���X�X����,2_1_1,2022/5/18,2:00,0,0
���X�X����,2_1_1,2022/5/18,3:00,1,0
���X�X����,2_1_1,2022/5/18,4:00,2,4
���X�X����,2_1_1,2022/5/18,5:00,17,8
���X�X����,2_1_1,2022/5/18,6:00,49,61
���X�X����,2_1_1,2022/5/18,7:00,90,408
���X�X����,2_1_1,2022/5/18,8:00,104,385
���X�X����,2_1_1,2022/5/18,9:00,111,154
���X�X����,2_1_1,2022/5/18,10:00,152,218
���X�X����,2_1_1,2022/5/18,11:00,174,234
���X�X����,2_1_1,2022/5/18,12:00,206,243
���X�X����,2_1_1,2022/5/18,13:00,215,210
���X�X����,2_1_1,2022/5/18,14:00,0,0
���X�X����,2_1_1,2022/5/18,15:00,0,0
���X�X����,2_1_1,2022/5/18,16:00,0,0
���X�X����,2_1_1,2022/5/18,17:00,0,0
���X�X����,2_1_1,2022/5/18,18:00,0,0
���X�X����,2_1_1,2022/5/18,19:00,0,0
���X�X����,2_1_1,2022/5/18,20:00,0,0
���X�X����,2_1_1,2022/5/18,21:00,0,0
���X�X����,2_1_1,2022/5/18,22:00,0,0
���X�X����,2_1_1,2022/5/18,23:00,0,0
���X�X����,2_1_1,2022/5/19,0:00,0,0
���X�X����,2_1_1,2022/5/19,1:00,0,0
���X�X����,2_1_1,2022/5/19,2:00,0,0
���X�X����,2_1_1,2022/5/19,3:00,0,0
���X�X����,2_1_1,2022/5/19,4:00,0,0
���X�X����,2_1_1,2022/5/19,5:00,0,0
���X�X����,2_1_1,2022/5/19,6:00,0,0
���X�X����,2_1_1,2022/5/19,7:00,0,0
���X�X����,2_1_1,2022/5/19,8:00,0,0
���X�X����,2_1_1,2022/5/19,9:00,0,0
���X�X����,2_1_1,2022/5/19,10:00,0,0
���X�X����,2_1_1,2022/5/19,11:00,0,0
���X�X����,2_1_1,2022/5/19,12:00,0,0
���X�X����,2_1_1,2022/5/19,13:00,48,49
���X�X����,2_1_1,2022/5/19,14:00,194,158
���X�X����,2_1_1,2022/5/19,15:00,193,142
���X�X����,2_1_1,2022/5/19,16:00,217,145
���X�X����,2_1_1,2022/5/19,17:00,282,146
���X�X����,2_1_1,2022/5/19,18:00,411,129
���X�X����,2_1_1,2022/5/19,19:00,89,100
���X�X����,2_1_1,2022/5/19,20:00,84,36
���X�X����,2_1_1,2022/5/19,21:00,104,30
���X�X����,2_1_1,2022/5/19,22:00,21,10
���X�X����,2_1_1,2022/5/19,23:00,3,2
���X�X����,2_1_1,2022/5/20,0:00,2,0
���X�X����,2_1_1,2022/5/20,1:00,7,0
���X�X����,2_1_1,2022/5/20,2:00,0,2
���X�X����,2_1_1,2022/5/20,3:00,0,0
���X�X����,2_1_1,2022/5/20,4:00,2,1
���X�X����,2_1_1,2022/5/20,5:00,22,18
���X�X����,2_1_1,2022/5/20,6:00,46,50
���X�X����,2_1_1,2022/5/20,7:00,100,375
���X�X����,2_1_1,2022/5/20,8:00,106,369
���X�X����,2_1_1,2022/5/20,9:00,110,154
���X�X����,2_1_1,2022/5/20,10:00,153,197
���X�X����,2_1_1,2022/5/20,11:00,172,213
���X�X����,2_1_1,2022/5/20,12:00,203,221
���X�X����,2_1_1,2022/5/20,13:00,226,184
���X�X����,2_1_1,2022/5/20,14:00,182,183
���X�X����,2_1_1,2022/5/20,15:00,254,173
���X�X����,2_1_1,2022/5/20,16:00,228,151
���X�X����,2_1_1,2022/5/20,17:00,306,147
���X�X����,2_1_1,2022/5/20,18:00,412,170
���X�X����,2_1_1,2022/5/20,19:00,107,100
���X�X����,2_1_1,2022/5/20,20:00,73,81
���X�X����,2_1_1,2022/5/20,21:00,95,46
���X�X����,2_1_1,2022/5/20,22:00,21,15
���X�X����,2_1_1,2022/5/20,23:00,14,2
���X�X����,2_1_1,2022/5/21,0:00,4,0
���X�X����,2_1_1,2022/5/21,1:00,3,2
���X�X����,2_1_1,2022/5/21,2:00,3,1
���X�X����,2_1_1,2022/5/21,3:00,0,0
���X�X����,2_1_1,2022/5/21,4:00,4,3
���X�X����,2_1_1,2022/5/21,5:00,14,12
���X�X����,2_1_1,2022/5/21,6:00,33,20
���X�X����,2_1_1,2022/5/21,7:00,58,91
���X�X����,2_1_1,2022/5/21,8:00,120,158
���X�X����,2_1_1,2022/5/21,9:00,114,167
���X�X����,2_1_1,2022/5/21,10:00,148,285
���X�X����,2_1_1,2022/5/21,11:00,247,408
���X�X����,2_1_1,2022/5/21,12:00,335,353
���X�X����,2_1_1,2022/5/21,13:00,389,328
���X�X����,2_1_1,2022/5/21,14:00,360,346
���X�X����,2_1_1,2022/5/21,15:00,382,299
���X�X����,2_1_1,2022/5/21,16:00,286,202
���X�X����,2_1_1,2022/5/21,17:00,264,178
���X�X����,2_1_1,2022/5/21,18:00,180,191
���X�X����,2_1_1,2022/5/21,19:00,122,112
���X�X����,2_1_1,2022/5/21,20:00,84,61
���X�X����,2_1_1,2022/5/21,21:00,84,27
���X�X����,2_1_1,2022/5/21,22:00,16,13
���X�X����,2_1_1,2022/5/21,23:00,9,5
���X�X����,2_1_1,2022/5/22,0:00,4,2
���X�X����,2_1_1,2022/5/22,1:00,5,2
���X�X����,2_1_1,2022/5/22,2:00,4,2
���X�X����,2_1_1,2022/5/22,3:00,2,0
���X�X����,2_1_1,2022/5/22,4:00,2,0
���X�X����,2_1_1,2022/5/22,5:00,25,14
���X�X����,2_1_1,2022/5/22,6:00,20,46
���X�X����,2_1_1,2022/5/22,7:00,48,88
���X�X����,2_1_1,2022/5/22,8:00,73,110
���X�X����,2_1_1,2022/5/22,9:00,106,222
���X�X����,2_1_1,2022/5/22,10:00,179,378
���X�X����,2_1_1,2022/5/22,11:00,252,450
���X�X����,2_1_1,2022/5/22,12:00,386,458
���X�X����,2_1_1,2022/5/22,13:00,457,427
���X�X����,2_1_1,2022/5/22,14:00,540,452
���X�X����,2_1_1,2022/5/22,15:00,498,355
���X�X����,2_1_1,2022/5/22,16:00,282,258
���X�X����,2_1_1,2022/5/22,17:00,270,149
���X�X����,2_1_1,2022/5/22,18:00,169,138
���X�X����,2_1_1,2022/5/22,19:00,85,93
���X�X����,2_1_1,2022/5/22,20:00,49,59
���X�X����,2_1_1,2022/5/22,21:00,53,33
���X�X����,2_1_1,2022/5/22,22:00,10,8
���X�X����,2_1_1,2022/5/22,23:00,7,2
���X�X����,2_1_1,2022/5/23,0:00,5,2
���X�X����,2_1_1,2022/5/23,1:00,4,3
���X�X����,2_1_1,2022/5/23,2:00,0,3
���X�X����,2_1_1,2022/5/23,3:00,0,1
���X�X����,2_1_1,2022/5/23,4:00,4,0
���X�X����,2_1_1,2022/5/23,5:00,15,17
���X�X����,2_1_1,2022/5/23,6:00,37,59
���X�X����,2_1_1,2022/5/23,7:00,88,424
���X�X����,2_1_1,2022/5/23,8:00,93,339
���X�X����,2_1_1,2022/5/23,9:00,120,161
���X�X����,2_1_1,2022/5/23,10:00,179,239
���X�X����,2_1_1,2022/5/23,11:00,166,173
���X�X����,2_1_1,2022/5/23,12:00,235,239
���X�X����,2_1_1,2022/5/23,13:00,203,219
���X�X����,2_1_1,2022/5/23,14:00,182,208
���X�X����,2_1_1,2022/5/23,15:00,251,125
���X�X����,2_1_1,2022/5/23,16:00,255,138
���X�X����,2_1_1,2022/5/23,17:00,273,124
���X�X����,2_1_1,2022/5/23,18:00,382,103
���X�X����,2_1_1,2022/5/23,19:00,81,96
���X�X����,2_1_1,2022/5/23,20:00,68,57
���X�X����,2_1_1,2022/5/23,21:00,57,41
���X�X����,2_1_1,2022/5/23,22:00,10,8
���X�X����,2_1_1,2022/5/23,23:00,1,2
���X�X����,2_1_1,2022/5/24,0:00,2,2
���X�X����,2_1_1,2022/5/24,1:00,3,0
���X�X����,2_1_1,2022/5/24,2:00,1,2
���X�X����,2_1_1,2022/5/24,3:00,1,0
���X�X����,2_1_1,2022/5/24,4:00,2,3
���X�X����,2_1_1,2022/5/24,5:00,21,23
���X�X����,2_1_1,2022/5/24,6:00,44,55
���X�X����,2_1_1,2022/5/24,7:00,81,422
���X�X����,2_1_1,2022/5/24,8:00,101,335
���X�X����,2_1_1,2022/5/24,9:00,120,139
���X�X����,2_1_1,2022/5/24,10:00,141,183
���X�X����,2_1_1,2022/5/24,11:00,151,183
���X�X����,2_1_1,2022/5/24,12:00,201,211
���X�X����,2_1_1,2022/5/24,13:00,175,199
���X�X����,2_1_1,2022/5/24,14:00,177,138
���X�X����,2_1_1,2022/5/24,15:00,173,112
���X�X����,2_1_1,2022/5/24,16:00,231,128
���X�X����,2_1_1,2022/5/24,17:00,311,145
���X�X����,2_1_1,2022/5/24,18:00,367,113
���X�X����,2_1_1,2022/5/24,19:00,87,106
���X�X����,2_1_1,2022/5/24,20:00,73,60
���X�X����,2_1_1,2022/5/24,21:00,81,45
���X�X����,2_1_1,2022/5/24,22:00,27,8
���X�X����,2_1_1,2022/5/24,23:00,4,3
���X�X����,2_1_1,2022/5/25,0:00,2,0
���X�X����,2_1_1,2022/5/25,1:00,1,0
���X�X����,2_1_1,2022/5/25,2:00,1,1
���X�X����,2_1_1,2022/5/25,3:00,1,0
���X�X����,2_1_1,2022/5/25,4:00,2,1
���X�X����,2_1_1,2022/5/25,5:00,23,19
���X�X����,2_1_1,2022/5/25,6:00,42,48
���X�X����,2_1_1,2022/5/25,7:00,101,445
���X�X����,2_1_1,2022/5/25,8:00,98,332
���X�X����,2_1_1,2022/5/25,9:00,140,178
���X�X����,2_1_1,2022/5/25,10:00,131,194
���X�X����,2_1_1,2022/5/25,11:00,150,250
���X�X����,2_1_1,2022/5/25,12:00,190,251
���X�X����,2_1_1,2022/5/25,13:00,261,183
���X�X����,2_1_1,2022/5/25,14:00,296,166
���X�X����,2_1_1,2022/5/25,15:00,262,115
���X�X����,2_1_1,2022/5/25,16:00,374,168
���X�X����,2_1_1,2022/5/25,17:00,321,137
���X�X����,2_1_1,2022/5/25,18:00,194,114
���X�X����,2_1_1,2022/5/25,19:00,97,115
���X�X����,2_1_1,2022/5/25,20:00,63,60
���X�X����,2_1_1,2022/5/25,21:00,92,46
���X�X����,2_1_1,2022/5/25,22:00,14,15
���X�X����,2_1_1,2022/5/25,23:00,7,7
���X�X����,2_1_1,2022/5/26,0:00,5,0
���X�X����,2_1_1,2022/5/26,1:00,4,0
���X�X����,2_1_1,2022/5/26,2:00,2,1
���X�X����,2_1_1,2022/5/26,3:00,1,3
���X�X����,2_1_1,2022/5/26,4:00,0,0